Regional Weather Roundup
Issued by NWS

Home | Current Version | Previous Version | Graphics & Text | Print | Product List | Glossary On
Versions: 1 2 3 4 5 6 7 8 9 10 11 12 13 14 15 16 17 18 19 20 21 22 23 24 25 26 27 28 29 30 31 32 33 34 35 36 37 38 39 40 41 42 43 44 45 46 47 48 49 50
000
ASUS43 KFSD 201710
RWRSD

WEATHER ROUNDUP FOR SOUTH DAKOTA
NATIONAL WEATHER SERVICE SIOUX FALLS SD
1100 AM CST FRI JAN 20 2017

NOTE: "FAIR" INDICATES FEW OR NO CLOUDS BELOW 12,000 FEET WITH NO
SIGNIFICANT WEATHER AND/OR OBSTRUCTIONS TO VISIBILITY.


SDZ001>005-009-010-012>017-201800-
NORTHWEST AND NORTH CENTRAL SOUTH DAKOTA

CITY           SKY/WX    TMP DP  RH WIND       PRES   REMARKS
BUFFALO          N/A     34  29  82 NW23      29.30R WCI  22
FAITH            N/A     22  21  96 NW9       29.36R WCI  12
MOBRIDGE       FOG       26  22  84 NW3       29.36F VSB 1
$$

SDZ012>016-024>037-041>051-057-063-072>074-201800-
SOUTHWEST AND SOUTH CENTRAL SOUTH DAKOTA

CITY           SKY/WX    TMP DP  RH WIND       PRES   REMARKS
RAPID CTY ARPT MOSUNNY   39  30  70 NW14      29.36F
PIERRE         CLOUDY    15  13  91 SW5       29.38F FOG     WCI   8
CUSTER         CLOUDY    38  24  57 VRB6      29.35F
ELLSWORTH AFB  CLOUDY    38  31  76 NW17      29.35F
PHILIP         CLOUDY    27  22  81 W7        29.39S WCI  19
PINE RIDGE     SUNNY     30  24  78 W5        29.40R WCI  25
SPEARFISH      PTSUNNY   37  32  81 W10G16    29.42S
WINNER         FAIR      37  26  64 W10       29.38F
$$

SDZ004>011-016>023-039-040-201800-
NORTHEAST SOUTH DAKOTA

CITY           SKY/WX    TMP DP  RH WIND       PRES   REMARKS
ABERDEEN       CLOUDY    35  32  88 SE10      29.43F FOG     WCI  27
WATERTOWN      CLOUDY    36  35  96 SE12      29.44F
BROOKINGS      CLOUDY    36  35  96 SE17      29.47F FOG
SISSETON         N/A     34  34 100 S12       29.48F WCI  25
$$

SDZ017-020-022-023-036>040-048>070-201800-
SOUTHEAST SOUTH DAKOTA

CITY           SKY/WX    TMP DP  RH WIND       PRES   REMARKS
SIOUX FALLS    CLOUDY    40  39  97 SE16G23   29.50S
HURON          CLOUDY    37  37 100 SE12      29.41F
CHAMBERLAIN    CLOUDY    30  30 100 W5        29.39F FOG     WCI  25
MITCHELL       CLOUDY    38  36  92 S15G24    29.44S
YANKTON        CLOUDY    43  37  81 SE14      29.48S
$$

ABBREVIATIONS USED IN REMARKS
   TC - TEMPERATURE IN CELSIUS
  WCI - WIND CHILL INDEX
   HX - HEAT INDEX
  VSB - VISIBILITY





USA.gov is the U.S. government's official web portal to all federal, state and local government web resources and services.